SCP
0 0 0 0 0 0 0 0 0 0 0 0 0 0 0 0 0 0 0 0 0 0 0 0 0 0 0 0 0 0 0 0
0 0 0 0 0 0 0 0 0 0 0 0 0 0 0 0 0 0 0 0 0 0 0 0 0 0 0 0 0 0 0 0
0 0 0 0 0 0 0 0 0 0 0 0 0 0 0 0 0 0 0 0 0 0 0 0 0 0 0 0 0 0 0 0
0 0 0 0 0 0 0 0 0 0 0 0 0 0 0 0 0 0 0 0 0 0 0 0 0 0 0 0 0 0 0 0
0 0 0 0 0 0 0 0 0 0 0 0 0 0 0 0 0 0 0 0 0 0 0 0 0 0 0 0 0 0 0 0
0 0 0 0 0 0 0 0 0 0 0 0 0 0 0 0 0 0 0 0 0 0 0 0 0 0 0 0 0 0 0 0
0 0 0 0 0 0 0 0 0 0 0 0 0 0 0 0 0 0 0 0 0 0 0 0 0 0 0 0 0 0 0 0
0 0 0 0 0 0 0 0 0 0 0 0 0 0 0 0 0 0 0 0 0 0 0 0 0 0 0 0 0 0 0 0
0 0 0 0 0 0 0 0 0 0 0 0 0 0 0 0 0 0 0 0 0 0 0 0 0 0 0 0 0 0 0 0
0 0 0 0 0 0 0 0 0 0 0 0 0 0 0 0 0 0 0 0 0 0 0 0 0 0 0 0 0 0 0 0
0 0 0 0 0 0 0 0 0 0 0 0 0 0 0 0 0 0 0 0 0 0 0 0 -0 -0 0 0 -0 0 0 0
0 0 0 0 0 0 0 0 0 0 0 0 0 0 0 0 0 0 0 0 0 0 -0 -0 -0 -0 0 0 0 0 0 0
0 0 0 0 0 0 0 0 0 0 0 0 0 0 0 0 0 0 0 0 0 -0 0 -0 -0 -0 -0 -0 -0 -0 -0 -0
0 0 0 0 0 0 0 0 0 0 0 0 0 0 0 0 0 0 0 0 0 0 0 -0 -0 0 0 0 0 -0 -0 -0
0 0 0 0 0 0 0 0 0 0 0 0 0 0 0 0 0 0 0 0 0 0 0 0 -0 0 0 -0 -0 -0 -0 -0
0 0 0 0 0 0 0 0 0 0 0 0 0 0 0 0 0 0 0 0 0 0 0 0 -0 -0 -0 -0 -0 -0 -0 0
0 0 0 0 0 0 0 0 0 0 0 0 0 0 0 0 0 0 0 0 0 0 0 0 -0 -0 -0 0 -0 -0 -0 -0
-0 0 0 0 0 0 0 0 0 0 0 0 0 0 0 0 0 0 0 0 0 0 0 0 0 0 0 0 0 0 0 0
0 0 0 0 0 0 0 0 0 0 0 0 0 0 0 0 0 0 0 0 0 0 0 0 0 0 0 0 0 0 0 0
Wind_Speed_500mb
33 29 25 22 23 29 31 30 29 29 30 25 21 15 13 9 7 9 6 8 9 11 15 17 20 21 22 25 26 29 35 43
35 32 28 24 24 25 27 29 28 25 25 26 24 22 19 16 14 6 3 4 6 8 11 12 15 18 22 25 26 29 33 38
37 35 32 29 28 27 27 27 27 24 22 23 24 21 19 16 14 9 5 6 9 12 14 16 19 21 23 25 27 28 31 37
42 38 34 33 32 32 31 30 29 27 24 21 19 18 18 16 13 10 13 13 13 14 16 18 20 23 26 30 31 33 36 35
41 39 36 33 32 30 29 29 29 28 24 20 19 19 18 17 15 15 15 16 18 21 24 25 27 28 29 31 32 31 30 31
46 41 36 32 29 28 28 28 27 27 25 23 21 21 22 22 21 20 22 22 22 24 27 30 31 33 34 34 33 35 36 32
49 44 39 34 30 27 25 26 29 28 25 24 22 23 24 22 22 20 21 22 24 27 28 28 29 29 30 31 32 33 34 33
58 53 46 40 34 31 27 24 28 25 22 23 23 23 22 21 22 23 22 24 27 30 31 32 33 34 34 34 34 34 35 36
62 55 48 42 36 31 28 25 24 22 19 20 21 21 20 21 21 23 24 28 30 31 32 33 34 35 36 35 35 35 35 34
66 60 51 46 39 33 29 27 24 22 19 19 18 18 18 21 22 23 25 26 27 28 30 32 34 35 36 38 39 39 39 39
67 67 59 49 41 36 32 26 24 22 18 16 16 17 19 21 21 22 25 26 28 29 32 35 38 41 45 46 46 46 45 44
78 73 64 55 46 38 35 30 26 22 17 15 15 16 17 19 20 24 26 28 29 30 34 37 40 42 46 47 47 47 47 46
82 80 74 64 54 45 37 32 27 22 17 14 12 13 15 17 20 24 26 27 29 31 34 37 40 43 46 48 51 52 53 54
77 79 79 72 61 50 42 35 30 25 18 13 12 12 14 16 19 22 23 26 28 30 33 37 39 43 46 48 51 52 55 56
81 84 82 74 64 55 47 40 32 25 20 15 12 13 14 16 18 19 21 23 26 30 33 36 39 43 46 49 51 51 53 54
97 95 89 80 70 59 49 40 34 26 20 16 14 14 14 15 16 18 20 23 27 30 31 34 39 44 48 51 51 52 53 54
96 100 93 86 75 64 53 43 36 28 22 19 18 16 15 14 15 16 19 22 25 26 29 33 37 42 45 49 52 52 54 60
107 113 102 90 78 66 57 47 38 31 25 23 21 19 16 14 14 15 17 20 22 24 27 31 35 39 43 46 49 53 57 59
106 113 102 91 79 70 58 50 42 36 32 27 25 21 17 14 13 13 16 17 19 22 26 31 34 39 42 44 48 51 52 55
Wind_Direction_500mb
117 119 125 136 154 168 172 179 180 182 172 173 164 175 172 214 205 214 237 267 278 282 292 296 293 294 299 300 299 300 296 295
122 121 121 128 135 151 159 163 158 169 178 174 164 162 156 164 141 133 80 21 351 338 337 337 331 329 328 323 323 324 317 315
134 132 131 133 130 135 145 159 159 164 160 157 149 143 139 127 104 88 65 43 15 359 352 348 348 346 338 335 332 334 333 333
142 139 138 133 131 132 137 138 140 143 146 146 141 136 123 114 102 73 55 42 32 21 14 8 2 356 353 350 348 347 347 348
152 148 142 141 137 134 134 135 138 137 136 140 141 139 131 106 88 69 56 42 32 28 26 25 22 18 12 8 2 356 352 348
160 153 149 141 136 136 137 138 137 133 136 137 134 124 107 96 84 69 56 44 34 29 24 20 15 12 9 4 1 360 358 356
164 158 153 148 143 139 137 136 133 129 129 120 112 103 99 97 87 74 59 46 37 32 28 25 22 17 13 8 5 2 0 358
170 166 159 155 150 147 143 142 132 126 123 115 109 103 98 86 75 64 55 46 38 33 27 25 24 22 20 18 14 11 10 6
178 171 164 158 154 152 151 151 142 131 120 109 99 92 83 76 68 58 48 43 37 31 25 24 24 24 24 22 17 13 9 4
180 173 169 163 158 154 156 155 149 140 132 119 106 94 85 74 64 54 50 44 40 34 30 29 28 29 28 23 21 16 10 4
181 176 172 167 162 156 154 156 153 145 136 123 105 91 81 72 63 58 52 47 42 36 33 31 29 28 25 24 20 15 10 4
181 177 174 171 167 163 160 161 159 151 142 124 101 91 80 70 63 58 52 45 40 37 35 31 31 27 27 24 21 17 13 9
180 178 175 175 172 169 166 164 161 157 148 129 111 94 81 70 63 57 51 46 42 37 32 32 32 30 27 25 22 18 15 13
177 178 179 179 176 173 170 169 169 163 156 142 124 109 93 81 71 62 56 50 45 39 34 34 32 29 26 24 21 18 18 14
178 181 183 182 180 177 173 173 174 169 161 151 138 125 107 92 79 70 61 54 47 41 36 33 30 29 26 23 21 19 17 14
186 184 184 184 182 181 178 178 175 173 168 159 152 139 119 103 90 75 63 53 46 41 36 33 30 28 25 23 21 18 15 13
185 186 186 186 185 184 183 183 181 178 173 169 164 146 130 116 93 78 63 53 47 41 34 32 31 29 26 23 20 21 17 14
186 189 189 188 188 190 187 185 183 181 181 177 167 155 143 122 102 82 67 57 46 38 33 30 26 25 22 21 18 18 17 12
187 191 191 190 190 190 187 188 186 187 184 181 172 161 150 135 111 89 72 59 44 36 29 26 21 19 16 15 14 14 12 10
Wind_Speed_850mb
33 29 25 22 23 29 31 30 29 29 30 25 21 15 13 9 7 9 6 8 9 11 15 17 20 21 22 25 26 29 35 43
35 32 28 24 24 25 27 29 28 25 25 26 24 22 19 16 14 6 3 4 6 8 11 12 15 18 22 25 26 29 33 38
37 35 32 29 28 27 27 27 27 24 22 23 24 21 19 16 14 9 5 6 9 12 14 16 19 21 23 25 27 28 31 37
42 38 34 33 32 32 31 30 29 27 24 21 19 18 18 16 13 10 13 13 13 14 16 18 20 23 26 30 31 33 36 35
41 39 36 33 32 30 29 29 29 28 24 20 19 19 18 17 15 15 15 16 18 21 24 25 27 28 29 31 32 31 30 31
46 41 36 32 29 28 28 28 27 27 25 23 21 21 22 22 21 20 22 22 22 24 27 30 31 33 34 34 33 35 36 32
49 44 39 34 30 27 25 26 29 28 25 24 22 23 24 22 22 20 21 22 24 27 28 28 29 29 30 31 32 33 34 33
58 53 46 40 34 31 27 24 28 25 22 23 23 23 22 21 22 23 22 24 27 30 31 32 33 34 34 34 34 34 35 36
62 55 48 42 36 31 28 25 24 22 19 20 21 21 20 21 21 23 24 28 30 31 32 33 34 35 36 35 35 35 35 34
66 60 51 46 39 33 29 27 24 22 19 19 18 18 18 21 22 23 25 26 27 28 30 32 34 35 36 38 39 39 39 39
67 67 59 49 41 36 32 26 24 22 18 16 16 17 19 21 21 22 25 26 28 29 32 35 38 41 45 46 46 46 45 44
78 73 64 55 46 38 35 30 26 22 17 15 15 16 17 19 20 24 26 28 29 30 34 37 40 42 46 47 47 47 47 46
82 80 74 64 54 45 37 32 27 22 17 14 12 13 15 17 20 24 26 27 29 31 34 37 40 43 46 48 51 52 53 54
77 79 79 72 61 50 42 35 30 25 18 13 12 12 14 16 19 22 23 26 28 30 33 37 39 43 46 48 51 52 55 56
81 84 82 74 64 55 47 40 32 25 20 15 12 13 14 16 18 19 21 23 26 30 33 36 39 43 46 49 51 51 53 54
97 95 89 80 70 59 49 40 34 26 20 16 14 14 14 15 16 18 20 23 27 30 31 34 39 44 48 51 51 52 53 54
96 100 93 86 75 64 53 43 36 28 22 19 18 16 15 14 15 16 19 22 25 26 29 33 37 42 45 49 52 52 54 60
107 113 102 90 78 66 57 47 38 31 25 23 21 19 16 14 14 15 17 20 22 24 27 31 35 39 43 46 49 53 57 59
106 113 102 91 79 70 58 50 42 36 32 27 25 21 17 14 13 13 16 17 19 22 26 31 34 39 42 44 48 51 52 55
Wind_Direction_850mb
117 119 125 136 154 168 172 179 180 182 172 173 164 175 172 214 205 214 237 267 278 282 292 296 293 294 299 300 299 300 296 295
122 121 121 128 135 151 159 163 158 169 178 174 164 162 156 164 141 133 80 21 351 338 337 337 331 329 328 323 323 324 317 315
134 132 131 133 130 135 145 159 159 164 160 157 149 143 139 127 104 88 65 43 15 359 352 348 348 346 338 335 332 334 333 333
142 139 138 133 131 132 137 138 140 143 146 146 141 136 123 114 102 73 55 42 32 21 14 8 2 356 353 350 348 347 347 348
152 148 142 141 137 134 134 135 138 137 136 140 141 139 131 106 88 69 56 42 32 28 26 25 22 18 12 8 2 356 352 348
160 153 149 141 136 136 137 138 137 133 136 137 134 124 107 96 84 69 56 44 34 29 24 20 15 12 9 4 1 360 358 356
164 158 153 148 143 139 137 136 133 129 129 120 112 103 99 97 87 74 59 46 37 32 28 25 22 17 13 8 5 2 0 358
170 166 159 155 150 147 143 142 132 126 123 115 109 103 98 86 75 64 55 46 38 33 27 25 24 22 20 18 14 11 10 6
178 171 164 158 154 152 151 151 142 131 120 109 99 92 83 76 68 58 48 43 37 31 25 24 24 24 24 22 17 13 9 4
180 173 169 163 158 154 156 155 149 140 132 119 106 94 85 74 64 54 50 44 40 34 30 29 28 29 28 23 21 16 10 4
181 176 172 167 162 156 154 156 153 145 136 123 105 91 81 72 63 58 52 47 42 36 33 31 29 28 25 24 20 15 10 4
181 177 174 171 167 163 160 161 159 151 142 124 101 91 80 70 63 58 52 45 40 37 35 31 31 27 27 24 21 17 13 9
180 178 175 175 172 169 166 164 161 157 148 129 111 94 81 70 63 57 51 46 42 37 32 32 32 30 27 25 22 18 15 13
177 178 179 179 176 173 170 169 169 163 156 142 124 109 93 81 71 62 56 50 45 39 34 34 32 29 26 24 21 18 18 14
178 181 183 182 180 177 173 173 174 169 161 151 138 125 107 92 79 70 61 54 47 41 36 33 30 29 26 23 21 19 17 14
186 184 184 184 182 181 178 178 175 173 168 159 152 139 119 103 90 75 63 53 46 41 36 33 30 28 25 23 21 18 15 13
185 186 186 186 185 184 183 183 181 178 173 169 164 146 130 116 93 78 63 53 47 41 34 32 31 29 26 23 20 21 17 14
186 189 189 188 188 190 187 185 183 181 181 177 167 155 143 122 102 82 67 57 46 38 33 30 26 25 22 21 18 18 17 12
187 191 191 190 190 190 187 188 186 187 184 181 172 161 150 135 111 89 72 59 44 36 29 26 21 19 16 15 14 14 12 10